Toronto Pearson, Ontario

8:03 AM EDT on August 24, 2019 (GMT -0400)
Toronto-Pearson International

Weather History for CYYZ - July, 2019

Change the Weather History Date:

Wednesday, July 17, 2019

  Actual Average Record
Temperature  
Mean Temperature 76 °F -  
Max Temperature 82 °F 79 °F 97 °F (2012)
Min Temperature 71 °F 57 °F 51 °F (2014)
Cooling Degree Days 12    
Growing Degree Days 26 (Base 50)    
Moisture  
Dew Point 72 °F    
Average Humidity 89    
Maximum Humidity 100    
Minimum Humidity 64    
Precipitation  
Precipitation 2.60 in 0.11 in - ()
Sea Level Pressure  
Sea Level Pressure 29.89 in    
Wind  
Wind Speed 9 mph ()    
Max Wind Speed 18 mph    
Max Gust Speed 20 mph    
Visibility 11.2 miles    
Events Rain , Thunderstorm    
Averages and records for this station are not official NWS values.
T = Trace of Precipitation, MM = Missing Value Source: Averaged Metar Reports

Daily Weather History Graph

Daily Weather History Graph

Search for Another Location

Airport or City:

Astronomy

Jul. 17, 2019 Rise Set
Actual Time 5:52 AM EDT 8:56 PM EDT
Civil Twilight 5:17 AM EDT 9:30 PM EDT
Nautical Twilight 4:33 AM EDT 10:14 PM EDT
Astronomical Twilight 3:40 AM EDT 11:07 PM EDT
Moon 9:43 PM EDT (7/17) 6:23 AM EDT (7/17)
Length of Visible Light 16h 13m
Length of Day
15h 04m
Waxing Gibbous, 99% of the Moon is Illuminated
Jul 17
Waxing Gibbous
Jul 24
Last Quarter
Jul 31
New
Aug 7
First Quarter
Aug 15
Full

Hourly Weather History & Observations

Time (EDT) Temp. Heat Index Dew Point Humidity Pressure Visibility Wind Dir Wind Speed Gust Speed Precip Events Conditions
12:00 AM 75.2 °F - 71.6 °F 89% 29.91 in 15.0 mi South 12.7 mph - N/A   Mostly Cloudy
12:54 AM 75.2 °F - 71.6 °F 89% 29.91 in 15.0 mi South 12.7 mph - N/A Rain Light Rain
1:00 AM 75.2 °F - 71.6 °F 89% 29.91 in 15.0 mi South 12.7 mph - N/A Rain Light Rain
1:43 AM 75.2 °F - 71.6 °F 89% 29.90 in 15.0 mi South 12.7 mph - N/A   Mostly Cloudy
2:00 AM 74 °F - 71 °F 88% 29.90 in 15 mi South 12.7 mph - -   Partly Cloudy
2:00 AM 75.2 °F - 71.6 °F 89% 29.90 in 15.0 mi South 12.7 mph - N/A   Overcast
3:00 AM 73.4 °F - 71.6 °F 94% 29.88 in 15.0 mi South 11.5 mph - N/A   Mostly Cloudy
4:00 AM 73.4 °F - 71.6 °F 94% 29.88 in 15.0 mi South 10.4 mph - N/A   Overcast
4:12 AM 73.4 °F - 71.6 °F 94% 29.88 in 15.0 mi South 11.5 mph - N/A   Overcast
5:00 AM 74 °F - 71 °F 87% 29.87 in 15 mi South 9.2 mph - -   Overcast
5:00 AM 73.4 °F - 71.6 °F 94% 29.87 in 15.0 mi South 9.2 mph - N/A   Overcast
5:53 AM 73.4 °F - 71.6 °F 94% 29.88 in 6.0 mi South 10.4 mph - N/A   Overcast
6:00 AM 73.4 °F - 71.6 °F 94% 29.88 in 6.0 mi South 10.4 mph - N/A   Overcast
6:01 AM 73.4 °F - 71.6 °F 94% 29.88 in 6.0 mi South 10.4 mph - N/A Rain Light Rain Showers
6:24 AM 73.4 °F - 71.6 °F 94% 29.88 in 2.0 mi South 8.1 mph - N/A Rain Heavy Rain Showers
6:36 AM 73.4 °F - 71.6 °F 94% 29.88 in 4.0 mi South 8.1 mph - N/A Rain Light Rain Showers
6:42 AM 73.4 °F - 71.6 °F 94% 29.88 in 4.0 mi South 8.1 mph - N/A Rain Light Rain Showers
7:00 AM 73.4 °F - 71.6 °F 94% 29.88 in 6.0 mi South 6.9 mph - N/A Rain Light Rain Showers
7:48 AM 73.4 °F - 71.6 °F 94% 29.88 in 6.0 mi SSE 8.1 mph - N/A Rain Light Rain Showers
8:00 AM 73 °F - 72 °F 97% 29.89 in 10 mi South 8.1 mph - - Rain Light Rain Showers
8:00 AM 73.4 °F - 71.6 °F 94% 29.88 in 10.0 mi South 8.1 mph - N/A Rain Light Rain Showers
8:44 AM 73.4 °F - 73.4 °F 100% 29.89 in 10.0 mi South 8.1 mph - N/A Rain Light Rain Showers
9:00 AM 73.4 °F - 73.4 °F 100% 29.89 in 10.0 mi South 9.2 mph - N/A Rain Light Rain Showers
9:31 AM 73.4 °F - 71.6 °F 94% 29.91 in 2.0 mi Variable 6.9 mph - N/A Rain , Thunderstorm Thunderstorms and Rain
9:35 AM 73.4 °F - 71.6 °F 94% 29.91 in 1.0 mi Calm Calm - N/A Rain , Thunderstorm Heavy Thunderstorms and Rain
9:44 AM 73.4 °F - 71.6 °F 94% 29.91 in 0.8 mi Variable 11.5 mph - N/A Rain , Thunderstorm Heavy Thunderstorms and Rain
10:00 AM 73.4 °F - 71.6 °F 94% 29.91 in 4.0 mi SSE 9.2 mph - N/A Rain , Thunderstorm Thunderstorms and Rain
10:17 AM 73.4 °F - 71.6 °F 94% 29.90 in 3.0 mi SSE 18.4 mph - N/A Rain Heavy Rain Showers
11:00 AM 72 °F - 71 °F 97% 29.90 in 3 mi South 12.7 mph - -   Overcast
11:00 AM 71.6 °F - 71.6 °F 100% 29.90 in 3.0 mi SSE 11.5 mph 18.4 mph N/A Rain Heavy Rain Showers
11:08 AM 71.6 °F - 71.6 °F 100% 29.90 in 6.0 mi South 12.7 mph - N/A Rain Light Rain Showers
11:31 AM 73.4 °F - 71.6 °F 94% 29.89 in 15.0 mi ESE 3.5 mph - N/A Rain Light Rain Showers
11:50 AM 73.4 °F - 71.6 °F 94% 29.89 in 15.0 mi SE 4.6 mph - N/A   Mostly Cloudy
12:00 PM 75.2 °F - 73.4 °F 94% 29.89 in 12.0 mi SSE 6.9 mph - N/A   Mostly Cloudy
12:35 PM 77.0 °F - 73.4 °F 89% 29.89 in 12.0 mi SSE 8.1 mph - N/A   Mostly Cloudy
1:00 PM 78.8 °F - 75.2 °F 89% 29.89 in 15.0 mi SSE 5.8 mph 17.3 mph N/A   Mostly Cloudy
1:11 PM 77.0 °F - 73.4 °F 89% 29.89 in 15.0 mi SSE 10.4 mph 17.3 mph N/A   Mostly Cloudy
2:00 PM 78 °F - 72 °F 78% 29.90 in 15 mi SE 6.9 mph - -   Partly Cloudy
2:00 PM 78.8 °F - 71.6 °F 78% 29.90 in 15.0 mi SE 5.8 mph 17.3 mph N/A   Mostly Cloudy
2:26 PM 78.8 °F - 73.4 °F 83% 29.88 in 15.0 mi SSE 9.2 mph 18.4 mph N/A   Mostly Cloudy
3:00 PM 80.6 °F 84.6 °F 71.6 °F 74% 29.86 in 15.0 mi South 11.5 mph - N/A   Mostly Cloudy
4:00 PM 80.6 °F 85.4 °F 73.4 °F 79% 29.85 in 15.0 mi ESE 4.6 mph - N/A   Mostly Cloudy
5:00 PM 82.4 °F 88.2 °F 73.4 °F 74% 29.84 in 15.0 mi SE 8.1 mph - N/A   Scattered Clouds
5:21 PM 80.6 °F 85.4 °F 73.4 °F 79% 29.85 in 15.0 mi ENE 11.5 mph 18.4 mph N/A   Mostly Cloudy
5:26 PM 80.6 °F 84.6 °F 71.6 °F 74% 29.86 in 15.0 mi NE 17.3 mph - N/A Rain Light Rain Showers
6:00 PM 78.8 °F - 71.6 °F 78% 29.86 in 15.0 mi East 12.7 mph 19.6 mph N/A Rain Light Rain Showers
6:13 PM 78.8 °F - 73.4 °F 83% 29.86 in 15.0 mi East 6.9 mph 17.3 mph N/A   Mostly Cloudy
7:00 PM 78.8 °F - 73.4 °F 83% 29.86 in 15.0 mi SSE 9.2 mph 17.3 mph N/A   Mostly Cloudy
8:00 PM 77 °F - 72 °F 81% 29.88 in 15 mi ESE 4.6 mph - -   Partly Cloudy
8:00 PM 77.0 °F - 71.6 °F 83% 29.87 in 15.0 mi ESE 4.6 mph - N/A   Mostly Cloudy
9:00 PM 77.0 °F - 71.6 °F 83% 29.89 in 15.0 mi East 9.2 mph - N/A   Mostly Cloudy
10:00 PM 77.0 °F - 69.8 °F 78% 29.91 in 15.0 mi East 9.2 mph - N/A   Mostly Cloudy
11:00 PM 76 °F - 66 °F 64% 29.92 in 15 mi ENE 11.5 mph - -  
11:00 PM 75.2 °F - 66.2 °F 73% 29.92 in 15.0 mi ENE 11.5 mph - N/A   Mostly Cloudy